#datetime,building,power
2022-10-05T00:00:00,rvs,21.68
2022-10-05T00:01:00,rvs,17.90
2022-10-05T00:02:00,rvs,25.69
2022-10-05T00:03:00,rvs,26.05
2022-10-05T00:04:00,rvs,21.67
2022-10-05T00:05:00,rvs,33.35
2022-10-05T00:06:00,rvs,21.66
2022-10-05T00:07:00,rvs,17.12
2022-10-05T00:08:00,rvs,11.81
2022-10-05T00:09:00,rvs,16.31
2022-10-05T00:10:00,rvs,11.95
2022-10-05T00:11:00,rvs,12.06
2022-10-05T00:12:00,rvs,15.64
2022-10-05T00:13:00,rvs,11.86
2022-10-05T00:14:00,rvs,15.54
2022-10-05T00:15:00,rvs,11.55
2022-10-05T00:16:00,rvs,11.37
2022-10-05T00:17:00,rvs,15.49
2022-10-05T00:18:00,rvs,30.20
2022-10-05T00:19:00,rvs,11.29
2022-10-05T00:20:00,rvs,31.66
2022-10-05T00:21:00,rvs,28.02
2022-10-05T00:22:00,rvs,19.49
2022-10-05T00:23:00,rvs,29.08
2022-10-05T00:24:00,rvs,29.35
2022-10-05T00:25:00,rvs,19.86
2022-10-05T00:26:00,rvs,14.34
2022-10-05T00:27:00,rvs,14.75
2022-10-05T00:28:00,rvs,24.47
2022-10-05T00:29:00,rvs,15.28
2022-10-05T00:30:00,rvs,19.82
2022-10-05T00:31:00,rvs,11.22
2022-10-05T00:32:00,rvs,10.94
2022-10-05T00:33:00,rvs,14.99
2022-10-05T00:34:00,rvs,10.89
2022-10-05T00:35:00,rvs,14.55
2022-10-05T00:36:00,rvs,12.29
2022-10-05T00:37:00,rvs,11.89
2022-10-05T00:38:00,rvs,15.96
2022-10-05T00:39:00,rvs,10.54
2022-10-05T00:40:00,rvs,14.36
2022-10-05T00:41:00,rvs,10.24
2022-10-05T00:42:00,rvs,10.17
2022-10-05T00:43:00,rvs,10.35
2022-10-05T00:44:00,rvs,10.02
2022-10-05T00:45:00,rvs,9.32
2022-10-05T00:46:00,rvs,9.32
2022-10-05T00:47:00,rvs,9.07
2022-10-05T00:48:00,rvs,9.16
2022-10-05T00:49:00,rvs,9.25
2022-10-05T00:50:00,rvs,9.41
2022-10-05T00:51:00,rvs,9.41
2022-10-05T00:52:00,rvs,9.39
2022-10-05T00:53:00,rvs,9.61
2022-10-05T00:54:00,rvs,9.67
2022-10-05T00:55:00,rvs,9.79
2022-10-05T00:56:00,rvs,9.97
2022-10-05T00:57:00,rvs,10.53
2022-10-05T00:58:00,rvs,10.47
2022-10-05T00:59:00,rvs,10.19
2022-10-05T01:00:00,rvs,10.01
2022-10-05T01:01:00,rvs,10.00
2022-10-05T01:02:00,rvs,9.95
2022-10-05T01:03:00,rvs,9.86
2022-10-05T01:04:00,rvs,10.02
2022-10-05T01:05:00,rvs,9.84
2022-10-05T01:06:00,rvs,9.87
2022-10-05T01:07:00,rvs,10.48
2022-10-05T01:08:00,rvs,10.72
2022-10-05T01:09:00,rvs,10.73
2022-10-05T01:10:00,rvs,12.84
2022-10-05T01:11:00,rvs,10.85
2022-10-05T01:12:00,rvs,10.79
2022-10-05T01:13:00,rvs,10.73
2022-10-05T01:14:00,rvs,10.57
2022-10-05T01:15:00,rvs,10.28
2022-10-05T01:16:00,rvs,10.25
2022-10-05T01:17:00,rvs,10.01
2022-10-05T01:18:00,rvs,9.75
2022-10-05T01:19:00,rvs,9.84
2022-10-05T01:20:00,rvs,10.15
2022-10-05T01:21:00,rvs,10.16
2022-10-05T01:22:00,rvs,10.04
2022-10-05T01:23:00,rvs,9.60
2022-10-05T01:24:00,rvs,9.07
2022-10-05T01:25:00,rvs,9.07
2022-10-05T01:26:00,rvs,8.90
2022-10-05T01:27:00,rvs,8.61
2022-10-05T01:28:00,rvs,8.55
2022-10-05T01:29:00,rvs,11.55
2022-10-05T01:30:00,rvs,12.70
2022-10-05T01:31:00,rvs,13.11
2022-10-05T01:32:00,rvs,13.46
2022-10-05T01:33:00,rvs,14.94
2022-10-05T01:34:00,rvs,13.97
2022-10-05T01:35:00,rvs,11.80
2022-10-05T01:36:00,rvs,12.79
2022-10-05T01:37:00,rvs,14.03
2022-10-05T01:38:00,rvs,14.90
2022-10-05T01:39:00,rvs,14.68
2022-10-05T01:40:00,rvs,8.25
2022-10-05T01:41:00,rvs,8.35
2022-10-05T01:42:00,rvs,8.39
2022-10-05T01:43:00,rvs,8.47
2022-10-05T01:44:00,rvs,8.82
2022-10-05T01:45:00,rvs,8.87
2022-10-05T01:46:00,rvs,8.80
2022-10-05T01:47:00,rvs,8.86
2022-10-05T01:48:00,rvs,9.07
2022-10-05T01:49:00,rvs,9.02
2022-10-05T01:50:00,rvs,9.07
2022-10-05T01:51:00,rvs,9.12
2022-10-05T01:52:00,rvs,9.30
2022-10-05T01:53:00,rvs,9.31
2022-10-05T01:54:00,rvs,9.05
2022-10-05T01:55:00,rvs,9.10
2022-10-05T01:56:00,rvs,9.15
2022-10-05T01:57:00,rvs,9.37
2022-10-05T01:58:00,rvs,9.49
2022-10-05T01:59:00,rvs,9.25
2022-10-05T02:00:00,rvs,9.21
2022-10-05T02:01:00,rvs,9.18
2022-10-05T02:02:00,rvs,9.40
2022-10-05T02:03:00,rvs,9.33
2022-10-05T02:04:00,rvs,9.31
2022-10-05T02:05:00,rvs,9.24
2022-10-05T02:06:00,rvs,13.56
2022-10-05T02:07:00,rvs,13.58
2022-10-05T02:08:00,rvs,13.19
2022-10-05T02:09:00,rvs,8.69
2022-10-05T02:10:00,rvs,8.64
2022-10-05T02:11:00,rvs,8.65
2022-10-05T02:12:00,rvs,11.95
2022-10-05T02:13:00,rvs,13.01
2022-10-05T02:14:00,rvs,14.46
2022-10-05T02:15:00,rvs,14.15
2022-10-05T02:16:00,rvs,24.28
2022-10-05T02:17:00,rvs,25.12
2022-10-05T02:18:00,rvs,26.68
2022-10-05T02:19:00,rvs,27.06
2022-10-05T02:20:00,rvs,26.37
2022-10-05T02:21:00,rvs,25.53
2022-10-05T02:22:00,rvs,24.80
2022-10-05T02:23:00,rvs,25.34
2022-10-05T02:24:00,rvs,25.75
2022-10-05T02:25:00,rvs,25.67
2022-10-05T02:26:00,rvs,25.91
2022-10-05T02:27:00,rvs,22.47
2022-10-05T02:28:00,rvs,18.70
2022-10-05T02:29:00,rvs,19.93
2022-10-05T02:30:00,rvs,21.44
2022-10-05T02:31:00,rvs,23.40
2022-10-05T02:32:00,rvs,15.68
2022-10-05T02:33:00,rvs,15.67
2022-10-05T02:34:00,rvs,18.49
2022-10-05T02:35:00,rvs,18.89
2022-10-05T02:36:00,rvs,17.25
2022-10-05T02:37:00,rvs,25.18
2022-10-05T02:38:00,rvs,28.72
2022-10-05T02:39:00,rvs,30.32
2022-10-05T02:40:00,rvs,30.40
2022-10-05T02:41:00,rvs,23.90
2022-10-05T02:42:00,rvs,24.70
2022-10-05T02:43:00,rvs,18.32
2022-10-05T02:44:00,rvs,18.40
2022-10-05T02:45:00,rvs,19.07
2022-10-05T02:46:00,rvs,21.12
2022-10-05T02:47:00,rvs,21.57
2022-10-05T02:48:00,rvs,13.62
2022-10-05T02:49:00,rvs,13.46
2022-10-05T02:50:00,rvs,13.82
2022-10-05T02:51:00,rvs,13.72
2022-10-05T02:52:00,rvs,13.89
2022-10-05T02:53:00,rvs,13.76
2022-10-05T02:54:00,rvs,14.09
2022-10-05T02:55:00,rvs,14.10
2022-10-05T02:56:00,rvs,14.12
2022-10-05T02:57:00,rvs,9.03
2022-10-05T02:58:00,rvs,8.53
2022-10-05T02:59:00,rvs,8.42
2022-10-05T03:00:00,rvs,8.40
2022-10-05T03:01:00,rvs,8.46
2022-10-05T03:02:00,rvs,8.45
2022-10-05T03:03:00,rvs,8.45
2022-10-05T03:04:00,rvs,8.61
2022-10-05T03:05:00,rvs,8.60
2022-10-05T03:06:00,rvs,8.54
2022-10-05T03:07:00,rvs,8.68
2022-10-05T03:08:00,rvs,8.72
2022-10-05T03:09:00,rvs,8.60
2022-10-05T03:10:00,rvs,8.66
2022-10-05T03:11:00,rvs,8.75
2022-10-05T03:12:00,rvs,8.61
2022-10-05T03:13:00,rvs,9.02
2022-10-05T03:14:00,rvs,8.82
2022-10-05T03:15:00,rvs,8.83
2022-10-05T03:16:00,rvs,8.66
2022-10-05T03:17:00,rvs,8.83
2022-10-05T03:18:00,rvs,22.02
2022-10-05T03:19:00,rvs,21.53
2022-10-05T03:20:00,rvs,21.63
2022-10-05T03:21:00,rvs,21.46
2022-10-05T03:22:00,rvs,8.80
2022-10-05T03:23:00,rvs,9.33
2022-10-05T03:24:00,rvs,9.33
2022-10-05T03:25:00,rvs,9.17
2022-10-05T03:26:00,rvs,8.50
2022-10-05T03:27:00,rvs,8.08
2022-10-05T03:28:00,rvs,8.26
2022-10-05T03:29:00,rvs,8.39
2022-10-05T03:30:00,rvs,8.33
2022-10-05T03:31:00,rvs,8.74
2022-10-05T03:32:00,rvs,8.88
2022-10-05T03:33:00,rvs,8.97
2022-10-05T03:34:00,rvs,9.02
2022-10-05T03:35:00,rvs,9.15
2022-10-05T03:36:00,rvs,9.14
2022-10-05T03:37:00,rvs,8.96
2022-10-05T03:38:00,rvs,8.21
2022-10-05T03:39:00,rvs,8.20
2022-10-05T03:40:00,rvs,10.62
2022-10-05T03:41:00,rvs,12.60
2022-10-05T03:42:00,rvs,12.52
2022-10-05T03:43:00,rvs,13.07
2022-10-05T03:44:00,rvs,14.39
2022-10-05T03:45:00,rvs,13.50
2022-10-05T03:46:00,rvs,17.66
2022-10-05T03:47:00,rvs,17.35
2022-10-05T03:48:00,rvs,17.09
2022-10-05T03:49:00,rvs,8.50
2022-10-05T03:50:00,rvs,8.59
2022-10-05T03:51:00,rvs,8.42
2022-10-05T03:52:00,rvs,8.23
2022-10-05T03:53:00,rvs,8.17
2022-10-05T03:54:00,rvs,8.21
2022-10-05T03:55:00,rvs,8.31
2022-10-05T03:56:00,rvs,8.45
2022-10-05T03:57:00,rvs,8.33
2022-10-05T03:58:00,rvs,8.40
2022-10-05T03:59:00,rvs,8.19
2022-10-05T04:00:00,rvs,8.14
2022-10-05T04:01:00,rvs,8.29
2022-10-05T04:02:00,rvs,12.04
2022-10-05T04:03:00,rvs,12.99
2022-10-05T04:04:00,rvs,13.95
2022-10-05T04:05:00,rvs,16.38
2022-10-05T04:06:00,rvs,16.04
2022-10-05T04:07:00,rvs,15.96
2022-10-05T04:08:00,rvs,15.07
2022-10-05T04:09:00,rvs,15.22
2022-10-05T04:10:00,rvs,24.44
2022-10-05T04:11:00,rvs,35.43
2022-10-05T04:12:00,rvs,36.55
2022-10-05T04:13:00,rvs,36.66
2022-10-05T04:14:00,rvs,19.13
2022-10-05T04:15:00,rvs,12.15
2022-10-05T04:16:00,rvs,13.08
2022-10-05T04:17:00,rvs,13.72
2022-10-05T04:18:00,rvs,16.55
2022-10-05T04:19:00,rvs,12.76
2022-10-05T04:20:00,rvs,18.33
2022-10-05T04:21:00,rvs,19.96
2022-10-05T04:22:00,rvs,19.30
2022-10-05T04:23:00,rvs,19.00
2022-10-05T04:24:00,rvs,19.54
2022-10-05T04:25:00,rvs,18.77
2022-10-05T04:26:00,rvs,18.79
2022-10-05T04:27:00,rvs,17.62
2022-10-05T04:28:00,rvs,16.68
2022-10-05T04:29:00,rvs,9.38
2022-10-05T04:30:00,rvs,9.59
2022-10-05T04:31:00,rvs,8.97
2022-10-05T04:32:00,rvs,8.84
2022-10-05T04:33:00,rvs,8.99
2022-10-05T04:34:00,rvs,11.28
2022-10-05T04:35:00,rvs,12.30
2022-10-05T04:36:00,rvs,12.49
2022-10-05T04:37:00,rvs,13.29
2022-10-05T04:38:00,rvs,16.74
2022-10-05T04:39:00,rvs,16.69
2022-10-05T04:40:00,rvs,17.97
2022-10-05T04:41:00,rvs,19.23
2022-10-05T04:42:00,rvs,18.16
2022-10-05T04:43:00,rvs,17.83
2022-10-05T04:44:00,rvs,13.40
2022-10-05T04:45:00,rvs,15.53
2022-10-05T04:46:00,rvs,32.46
2022-10-05T04:47:00,rvs,33.80
2022-10-05T04:48:00,rvs,34.20
2022-10-05T04:49:00,rvs,34.83
2022-10-05T04:50:00,rvs,11.77
2022-10-05T04:51:00,rvs,12.07
2022-10-05T04:52:00,rvs,13.01
2022-10-05T04:53:00,rvs,14.20
2022-10-05T04:54:00,rvs,16.27
2022-10-05T04:55:00,rvs,15.70
2022-10-05T04:56:00,rvs,18.38
2022-10-05T04:57:00,rvs,18.16
2022-10-05T04:58:00,rvs,19.37
2022-10-05T04:59:00,rvs,18.86
2022-10-05T05:00:00,rvs,15.99
2022-10-05T05:01:00,rvs,18.24
2022-10-05T05:02:00,rvs,18.03
2022-10-05T05:03:00,rvs,18.09
2022-10-05T05:04:00,rvs,19.82
2022-10-05T05:05:00,rvs,18.27
2022-10-05T05:06:00,rvs,15.70
2022-10-05T05:07:00,rvs,8.80
2022-10-05T05:08:00,rvs,8.63
2022-10-05T05:09:00,rvs,8.90
2022-10-05T05:10:00,rvs,8.75
2022-10-05T05:11:00,rvs,8.79
2022-10-05T05:12:00,rvs,9.07
2022-10-05T05:13:00,rvs,8.49
2022-10-05T05:14:00,rvs,8.53
2022-10-05T05:15:00,rvs,8.47
2022-10-05T05:16:00,rvs,8.62
2022-10-05T05:17:00,rvs,8.46
2022-10-05T05:18:00,rvs,8.24
2022-10-05T05:19:00,rvs,8.11
2022-10-05T05:20:00,rvs,11.51
2022-10-05T05:21:00,rvs,12.42
2022-10-05T05:22:00,rvs,17.31
2022-10-05T05:23:00,rvs,17.98
2022-10-05T05:24:00,rvs,18.51
2022-10-05T05:25:00,rvs,18.17
2022-10-05T05:26:00,rvs,12.88
2022-10-05T05:27:00,rvs,13.26
2022-10-05T05:28:00,rvs,8.60
2022-10-05T05:29:00,rvs,11.31
2022-10-05T05:30:00,rvs,12.53
2022-10-05T05:31:00,rvs,13.22
2022-10-05T05:32:00,rvs,14.43
2022-10-05T05:33:00,rvs,16.29
2022-10-05T05:34:00,rvs,16.72
2022-10-05T05:35:00,rvs,16.80
2022-10-05T05:36:00,rvs,17.66
2022-10-05T05:37:00,rvs,17.55
2022-10-05T05:38:00,rvs,16.81
2022-10-05T05:39:00,rvs,18.05
2022-10-05T05:40:00,rvs,19.71
2022-10-05T05:41:00,rvs,17.65
2022-10-05T05:42:00,rvs,16.10
2022-10-05T05:43:00,rvs,15.85
2022-10-05T05:44:00,rvs,14.99
2022-10-05T05:45:00,rvs,14.83
2022-10-05T05:46:00,rvs,14.18
2022-10-05T05:47:00,rvs,13.50
2022-10-05T05:48:00,rvs,13.65
2022-10-05T05:49:00,rvs,8.34
2022-10-05T05:50:00,rvs,8.94
2022-10-05T05:51:00,rvs,8.83
2022-10-05T05:52:00,rvs,8.97
2022-10-05T05:53:00,rvs,8.91
2022-10-05T05:54:00,rvs,9.11
2022-10-05T05:55:00,rvs,9.04
2022-10-05T05:56:00,rvs,9.05
2022-10-05T05:57:00,rvs,9.09
2022-10-05T05:58:00,rvs,9.13
2022-10-05T05:59:00,rvs,8.99
2022-10-05T06:00:00,rvs,8.97
2022-10-05T06:01:00,rvs,9.28
2022-10-05T06:02:00,rvs,9.07
2022-10-05T06:03:00,rvs,9.10
2022-10-05T06:04:00,rvs,11.65
2022-10-05T06:05:00,rvs,13.68
2022-10-05T06:06:00,rvs,26.28
2022-10-05T06:07:00,rvs,26.29
2022-10-05T06:08:00,rvs,27.61
2022-10-05T06:09:00,rvs,14.09
2022-10-05T06:10:00,rvs,11.92
2022-10-05T06:11:00,rvs,12.87
2022-10-05T06:12:00,rvs,13.79
2022-10-05T06:13:00,rvs,15.48
2022-10-05T06:14:00,rvs,9.16
2022-10-05T06:15:00,rvs,9.12
2022-10-05T06:16:00,rvs,9.21
2022-10-05T06:17:00,rvs,9.69
2022-10-05T06:18:00,rvs,9.63
2022-10-05T06:19:00,rvs,9.35
2022-10-05T06:20:00,rvs,8.84
2022-10-05T06:21:00,rvs,8.79
2022-10-05T06:22:00,rvs,8.75
2022-10-05T06:23:00,rvs,8.29
2022-10-05T06:24:00,rvs,8.72
2022-10-05T06:25:00,rvs,8.88
2022-10-05T06:26:00,rvs,8.32
2022-10-05T06:27:00,rvs,8.32
2022-10-05T06:28:00,rvs,8.41
2022-10-05T06:29:00,rvs,8.33
2022-10-05T06:30:00,rvs,8.47
2022-10-05T06:31:00,rvs,8.38
2022-10-05T06:32:00,rvs,8.49
2022-10-05T06:33:00,rvs,8.42
2022-10-05T06:34:00,rvs,8.55
2022-10-05T06:35:00,rvs,8.35
2022-10-05T06:36:00,rvs,8.29
2022-10-05T06:37:00,rvs,8.19
2022-10-05T06:38:00,rvs,8.28
2022-10-05T06:39:00,rvs,8.23
2022-10-05T06:40:00,rvs,8.29
2022-10-05T06:41:00,rvs,8.39
2022-10-05T06:42:00,rvs,8.30
2022-10-05T06:43:00,rvs,8.19
2022-10-05T06:44:00,rvs,8.18
2022-10-05T06:45:00,rvs,8.52
2022-10-05T06:46:00,rvs,8.42
2022-10-05T06:47:00,rvs,8.44
2022-10-05T06:48:00,rvs,8.49
2022-10-05T06:49:00,rvs,8.64
2022-10-05T06:50:00,rvs,8.39
2022-10-05T06:51:00,rvs,8.47
2022-10-05T06:52:00,rvs,11.84
2022-10-05T06:53:00,rvs,12.63
2022-10-05T06:54:00,rvs,13.01
2022-10-05T06:55:00,rvs,13.81
2022-10-05T06:56:00,rvs,15.16
2022-10-05T06:57:00,rvs,14.02
2022-10-05T06:58:00,rvs,17.53
2022-10-05T06:59:00,rvs,17.32
2022-10-05T07:00:00,rvs,17.51
2022-10-05T07:01:00,rvs,18.22
2022-10-05T07:02:00,rvs,20.06
2022-10-05T07:03:00,rvs,20.64
2022-10-05T07:04:00,rvs,20.70
2022-10-05T07:05:00,rvs,7.91
2022-10-05T07:06:00,rvs,11.72
2022-10-05T07:07:00,rvs,13.15
2022-10-05T07:08:00,rvs,14.51
2022-10-05T07:09:00,rvs,15.53
2022-10-05T07:10:00,rvs,15.17
2022-10-05T07:11:00,rvs,14.05
2022-10-05T07:12:00,rvs,13.40
2022-10-05T07:13:00,rvs,14.77
2022-10-05T07:14:00,rvs,15.35
2022-10-05T07:15:00,rvs,14.20
2022-10-05T07:16:00,rvs,13.73
2022-10-05T07:17:00,rvs,13.14
2022-10-05T07:18:00,rvs,13.68
2022-10-05T07:19:00,rvs,13.86
2022-10-05T07:20:00,rvs,14.18
2022-10-05T07:21:00,rvs,14.33
2022-10-05T07:22:00,rvs,14.52
2022-10-05T07:23:00,rvs,13.93
2022-10-05T07:24:00,rvs,14.20
2022-10-05T07:25:00,rvs,14.06
2022-10-05T07:26:00,rvs,13.93
2022-10-05T07:27:00,rvs,14.01
2022-10-05T07:28:00,rvs,13.34
2022-10-05T07:29:00,rvs,8.25
2022-10-05T07:30:00,rvs,8.25
2022-10-05T07:31:00,rvs,8.27
2022-10-05T07:32:00,rvs,8.73
2022-10-05T07:33:00,rvs,8.25
2022-10-05T07:34:00,rvs,8.60
2022-10-05T07:35:00,rvs,8.65
2022-10-05T07:36:00,rvs,9.20
2022-10-05T07:37:00,rvs,8.97
2022-10-05T07:38:00,rvs,8.62
2022-10-05T07:39:00,rvs,10.43
2022-10-05T07:40:00,rvs,13.19
2022-10-05T07:41:00,rvs,14.17
2022-10-05T07:42:00,rvs,12.99
2022-10-05T07:43:00,rvs,14.82
2022-10-05T07:44:00,rvs,14.22
2022-10-05T07:45:00,rvs,15.34
2022-10-05T07:46:00,rvs,15.17
2022-10-05T07:47:00,rvs,15.67
2022-10-05T07:48:00,rvs,16.48
2022-10-05T07:49:00,rvs,16.23
2022-10-05T07:50:00,rvs,9.64
2022-10-05T07:51:00,rvs,9.72
2022-10-05T07:52:00,rvs,9.96
2022-10-05T07:53:00,rvs,9.78
2022-10-05T07:54:00,rvs,9.88
2022-10-05T07:55:00,rvs,9.11
2022-10-05T07:56:00,rvs,9.09
2022-10-05T07:57:00,rvs,8.55
2022-10-05T07:58:00,rvs,8.91
2022-10-05T07:59:00,rvs,8.84
2022-10-05T08:00:00,rvs,8.75
2022-10-05T08:01:00,rvs,8.92
2022-10-05T08:02:00,rvs,9.38
2022-10-05T08:03:00,rvs,9.43
2022-10-05T08:04:00,rvs,9.28
2022-10-05T08:05:00,rvs,8.88
2022-10-05T08:06:00,rvs,8.75
2022-10-05T08:07:00,rvs,9.12
2022-10-05T08:08:00,rvs,9.64
2022-10-05T08:09:00,rvs,9.67
2022-10-05T08:10:00,rvs,9.54
2022-10-05T08:11:00,rvs,9.54
2022-10-05T08:12:00,rvs,9.36
2022-10-05T08:13:00,rvs,9.79
2022-10-05T08:14:00,rvs,9.39
2022-10-05T08:15:00,rvs,10.03
2022-10-05T08:16:00,rvs,9.93
2022-10-05T08:17:00,rvs,10.65
2022-10-05T08:18:00,rvs,10.63
2022-10-05T08:19:00,rvs,11.28
2022-10-05T08:20:00,rvs,12.10
2022-10-05T08:21:00,rvs,10.00
2022-10-05T08:22:00,rvs,10.03
2022-10-05T08:23:00,rvs,9.53
2022-10-05T08:24:00,rvs,10.54
2022-10-05T08:25:00,rvs,9.82
2022-10-05T08:26:00,rvs,10.07
2022-10-05T08:27:00,rvs,10.20
2022-10-05T08:28:00,rvs,9.77
2022-10-05T08:29:00,rvs,9.67
2022-10-05T08:30:00,rvs,9.63
2022-10-05T08:31:00,rvs,14.07
2022-10-05T08:32:00,rvs,13.78
2022-10-05T08:33:00,rvs,15.05
2022-10-05T08:34:00,rvs,22.46
2022-10-05T08:35:00,rvs,18.70
2022-10-05T08:36:00,rvs,24.51
2022-10-05T08:37:00,rvs,20.38
2022-10-05T08:38:00,rvs,14.95
2022-10-05T08:39:00,rvs,15.00
2022-10-05T08:40:00,rvs,16.31
2022-10-05T08:41:00,rvs,13.75
2022-10-05T08:42:00,rvs,15.46
2022-10-05T08:43:00,rvs,18.69
2022-10-05T08:44:00,rvs,19.36
2022-10-05T08:45:00,rvs,19.92
2022-10-05T08:46:00,rvs,19.80
2022-10-05T08:47:00,rvs,20.45
2022-10-05T08:48:00,rvs,21.48
2022-10-05T08:49:00,rvs,19.83
2022-10-05T08:50:00,rvs,22.72
2022-10-05T08:51:00,rvs,22.69
2022-10-05T08:52:00,rvs,22.75
2022-10-05T08:53:00,rvs,23.82
2022-10-05T08:54:00,rvs,11.76
2022-10-05T08:55:00,rvs,13.04
2022-10-05T08:56:00,rvs,32.21
2022-10-05T08:57:00,rvs,15.17
2022-10-05T08:58:00,rvs,13.03
2022-10-05T08:59:00,rvs,18.22
2022-10-05T09:00:00,rvs,20.76
2022-10-05T09:01:00,rvs,22.22
2022-10-05T09:02:00,rvs,23.19
2022-10-05T09:03:00,rvs,22.07
2022-10-05T09:04:00,rvs,17.38
2022-10-05T09:05:00,rvs,9.68
2022-10-05T09:06:00,rvs,9.48
2022-10-05T09:07:00,rvs,10.39
2022-10-05T09:08:00,rvs,10.58
2022-10-05T09:09:00,rvs,10.59
2022-10-05T09:10:00,rvs,9.65
2022-10-05T09:11:00,rvs,10.03
2022-10-05T09:12:00,rvs,10.48
2022-10-05T09:13:00,rvs,10.28
2022-10-05T09:14:00,rvs,10.23
2022-10-05T09:15:00,rvs,9.53
2022-10-05T09:16:00,rvs,9.34
2022-10-05T09:17:00,rvs,9.37
2022-10-05T09:18:00,rvs,9.28
2022-10-05T09:19:00,rvs,9.64
2022-10-05T09:20:00,rvs,22.87
2022-10-05T09:21:00,rvs,22.39
2022-10-05T09:22:00,rvs,22.21
2022-10-05T09:23:00,rvs,22.06
2022-10-05T09:24:00,rvs,21.92
2022-10-05T09:25:00,rvs,9.46
2022-10-05T09:26:00,rvs,9.39
2022-10-05T09:27:00,rvs,9.42
2022-10-05T09:28:00,rvs,9.39
2022-10-05T09:29:00,rvs,10.21
2022-10-05T09:30:00,rvs,10.15
2022-10-05T09:31:00,rvs,10.32
2022-10-05T09:32:00,rvs,24.68
2022-10-05T09:33:00,rvs,9.89
2022-10-05T09:34:00,rvs,10.03
2022-10-05T09:35:00,rvs,9.66
2022-10-05T09:36:00,rvs,9.56
2022-10-05T09:37:00,rvs,9.48
2022-10-05T09:38:00,rvs,9.98
2022-10-05T09:39:00,rvs,9.70
2022-10-05T09:40:00,rvs,10.28
2022-10-05T09:41:00,rvs,9.84
2022-10-05T09:42:00,rvs,9.46
2022-10-05T09:43:00,rvs,9.51
2022-10-05T09:44:00,rvs,9.63
2022-10-05T09:45:00,rvs,9.12
2022-10-05T09:46:00,rvs,9.63
2022-10-05T09:47:00,rvs,9.38
2022-10-05T09:48:00,rvs,9.65
2022-10-05T09:49:00,rvs,12.55
2022-10-05T09:50:00,rvs,14.03
2022-10-05T09:51:00,rvs,14.83
2022-10-05T09:52:00,rvs,15.67
2022-10-05T09:53:00,rvs,17.47
2022-10-05T09:54:00,rvs,17.54
2022-10-05T09:55:00,rvs,17.91
2022-10-05T09:56:00,rvs,17.60
2022-10-05T09:57:00,rvs,17.23
2022-10-05T09:58:00,rvs,17.46
2022-10-05T09:59:00,rvs,16.33
2022-10-05T10:00:00,rvs,15.31
2022-10-05T10:01:00,rvs,16.60
2022-10-05T10:02:00,rvs,17.12
2022-10-05T10:03:00,rvs,16.40
2022-10-05T10:04:00,rvs,15.84
2022-10-05T10:05:00,rvs,9.46
2022-10-05T10:06:00,rvs,9.71
2022-10-05T10:07:00,rvs,9.74
2022-10-05T10:08:00,rvs,9.70
2022-10-05T10:09:00,rvs,9.60
2022-10-05T10:10:00,rvs,9.58
2022-10-05T10:11:00,rvs,9.39
2022-10-05T10:12:00,rvs,9.88
2022-10-05T10:13:00,rvs,9.54
2022-10-05T10:14:00,rvs,9.77
2022-10-05T10:15:00,rvs,13.80
2022-10-05T10:16:00,rvs,14.98
2022-10-05T10:17:00,rvs,14.38
2022-10-05T10:18:00,rvs,9.81
2022-10-05T10:19:00,rvs,9.94
2022-10-05T10:20:00,rvs,9.67
2022-10-05T10:21:00,rvs,9.72
2022-10-05T10:22:00,rvs,9.33
2022-10-05T10:23:00,rvs,9.71
2022-10-05T10:24:00,rvs,10.04
2022-10-05T10:25:00,rvs,10.13
2022-10-05T10:26:00,rvs,9.97
2022-10-05T10:27:00,rvs,9.75
2022-10-05T10:28:00,rvs,9.88
2022-10-05T10:29:00,rvs,10.23
2022-10-05T10:30:00,rvs,9.57
2022-10-05T10:31:00,rvs,9.57
2022-10-05T10:32:00,rvs,10.14
2022-10-05T10:33:00,rvs,10.07
2022-10-05T10:34:00,rvs,9.91
2022-10-05T10:35:00,rvs,9.87
2022-10-05T10:36:00,rvs,9.71
2022-10-05T10:37:00,rvs,9.46
2022-10-05T10:38:00,rvs,9.52
2022-10-05T10:39:00,rvs,9.40
2022-10-05T10:40:00,rvs,9.02
2022-10-05T10:41:00,rvs,9.01
2022-10-05T10:42:00,rvs,10.69
2022-10-05T10:43:00,rvs,11.36
2022-10-05T10:44:00,rvs,11.30
2022-10-05T10:45:00,rvs,11.25
2022-10-05T10:46:00,rvs,10.76
2022-10-05T10:47:00,rvs,10.97
2022-10-05T10:48:00,rvs,11.15
2022-10-05T10:49:00,rvs,9.53
2022-10-05T10:50:00,rvs,9.76
2022-10-05T10:51:00,rvs,9.79
2022-10-05T10:52:00,rvs,9.34
2022-10-05T10:53:00,rvs,9.27
2022-10-05T10:54:00,rvs,9.20
2022-10-05T10:55:00,rvs,9.17
2022-10-05T10:56:00,rvs,8.88
2022-10-05T10:57:00,rvs,8.86
2022-10-05T10:58:00,rvs,9.24
2022-10-05T10:59:00,rvs,9.73
2022-10-05T11:00:00,rvs,9.65
2022-10-05T11:01:00,rvs,9.60
2022-10-05T11:02:00,rvs,9.22
2022-10-05T11:03:00,rvs,9.23
2022-10-05T11:04:00,rvs,9.62
2022-10-05T11:05:00,rvs,9.39
2022-10-05T11:06:00,rvs,9.09
2022-10-05T11:07:00,rvs,9.21
2022-10-05T11:08:00,rvs,9.35
2022-10-05T11:09:00,rvs,8.80
2022-10-05T11:10:00,rvs,8.93
2022-10-05T11:11:00,rvs,9.15
2022-10-05T11:12:00,rvs,9.15
2022-10-05T11:13:00,rvs,8.98
2022-10-05T11:14:00,rvs,8.65
2022-10-05T11:15:00,rvs,9.12
2022-10-05T11:16:00,rvs,8.68
2022-10-05T11:17:00,rvs,11.25
2022-10-05T11:18:00,rvs,13.13
2022-10-05T11:19:00,rvs,12.95
2022-10-05T11:20:00,rvs,12.98
2022-10-05T11:21:00,rvs,12.99
2022-10-05T11:22:00,rvs,13.44
2022-10-05T11:23:00,rvs,13.64
2022-10-05T11:24:00,rvs,13.57
2022-10-05T11:25:00,rvs,13.65
2022-10-05T11:26:00,rvs,13.61
2022-10-05T11:27:00,rvs,13.73
2022-10-05T11:28:00,rvs,13.69
2022-10-05T11:29:00,rvs,14.27
2022-10-05T11:30:00,rvs,14.01
2022-10-05T11:31:00,rvs,13.61
2022-10-05T11:32:00,rvs,13.56
2022-10-05T11:33:00,rvs,14.01
2022-10-05T11:34:00,rvs,13.78
2022-10-05T11:35:00,rvs,12.92
2022-10-05T11:36:00,rvs,12.85
2022-10-05T11:37:00,rvs,8.89
2022-10-05T11:38:00,rvs,12.84
2022-10-05T11:39:00,rvs,12.73
2022-10-05T11:40:00,rvs,8.61
2022-10-05T11:41:00,rvs,12.20
2022-10-05T11:42:00,rvs,12.39
2022-10-05T11:43:00,rvs,8.22
2022-10-05T11:44:00,rvs,8.07
2022-10-05T11:45:00,rvs,12.05
2022-10-05T11:46:00,rvs,8.13
2022-10-05T11:47:00,rvs,12.17
2022-10-05T11:48:00,rvs,12.74
2022-10-05T11:49:00,rvs,8.52
2022-10-05T11:50:00,rvs,12.78
2022-10-05T11:51:00,rvs,8.75
2022-10-05T11:52:00,rvs,8.61
2022-10-05T11:53:00,rvs,8.60
2022-10-05T11:54:00,rvs,13.10
2022-10-05T11:55:00,rvs,13.26
2022-10-05T11:56:00,rvs,13.79
2022-10-05T11:57:00,rvs,32.02
2022-10-05T11:58:00,rvs,9.00
2022-10-05T11:59:00,rvs,21.83
2022-10-05T12:00:00,rvs,21.88
2022-10-05T12:01:00,rvs,21.59
2022-10-05T12:02:00,rvs,21.84
2022-10-05T12:03:00,rvs,9.76
2022-10-05T12:04:00,rvs,9.96
2022-10-05T12:05:00,rvs,10.29
2022-10-05T12:06:00,rvs,10.98
2022-10-05T12:07:00,rvs,11.16
2022-10-05T12:08:00,rvs,11.02
2022-10-05T12:09:00,rvs,11.33
2022-10-05T12:10:00,rvs,10.90
2022-10-05T12:11:00,rvs,9.57
2022-10-05T12:12:00,rvs,9.86
2022-10-05T12:13:00,rvs,10.25
2022-10-05T12:14:00,rvs,9.64
2022-10-05T12:15:00,rvs,10.77
2022-10-05T12:16:00,rvs,10.57
2022-10-05T12:17:00,rvs,9.33
2022-10-05T12:18:00,rvs,9.75
2022-10-05T12:19:00,rvs,10.02
2022-10-05T12:20:00,rvs,9.64
2022-10-05T12:21:00,rvs,9.05
2022-10-05T12:22:00,rvs,9.38
2022-10-05T12:23:00,rvs,9.76
2022-10-05T12:24:00,rvs,9.30
2022-10-05T12:25:00,rvs,8.99
2022-10-05T12:26:00,rvs,8.69
2022-10-05T12:27:00,rvs,8.89
2022-10-05T12:28:00,rvs,8.88
2022-10-05T12:29:00,rvs,8.76
2022-10-05T12:30:00,rvs,8.74
2022-10-05T12:31:00,rvs,8.55
2022-10-05T12:32:00,rvs,8.74
2022-10-05T12:33:00,rvs,8.66
2022-10-05T12:34:00,rvs,8.64
2022-10-05T12:35:00,rvs,8.82
2022-10-05T12:36:00,rvs,8.69
2022-10-05T12:37:00,rvs,8.70
2022-10-05T12:38:00,rvs,8.76
2022-10-05T12:39:00,rvs,9.07
2022-10-05T12:40:00,rvs,8.82
2022-10-05T12:41:00,rvs,9.36
2022-10-05T12:42:00,rvs,9.25
2022-10-05T12:43:00,rvs,9.18
2022-10-05T12:44:00,rvs,9.18
2022-10-05T12:45:00,rvs,9.25
2022-10-05T12:46:00,rvs,9.63
2022-10-05T12:47:00,rvs,9.57
2022-10-05T12:48:00,rvs,9.61
2022-10-05T12:49:00,rvs,9.08
2022-10-05T12:50:00,rvs,9.13
2022-10-05T12:51:00,rvs,9.16
2022-10-05T12:52:00,rvs,9.20
2022-10-05T12:53:00,rvs,9.11
2022-10-05T12:54:00,rvs,9.10
2022-10-05T12:55:00,rvs,8.77
2022-10-05T12:56:00,rvs,9.26
2022-10-05T12:57:00,rvs,9.52
2022-10-05T12:58:00,rvs,9.33
2022-10-05T12:59:00,rvs,9.34
2022-10-05T13:00:00,rvs,9.44
2022-10-05T13:01:00,rvs,9.58
2022-10-05T13:02:00,rvs,9.85
2022-10-05T13:03:00,rvs,9.81
2022-10-05T13:04:00,rvs,9.79
2022-10-05T13:05:00,rvs,9.80
2022-10-05T13:06:00,rvs,9.83
2022-10-05T13:07:00,rvs,9.71
2022-10-05T13:08:00,rvs,9.60
2022-10-05T13:09:00,rvs,10.56
2022-10-05T13:10:00,rvs,10.48
2022-10-05T13:11:00,rvs,10.53
2022-10-05T13:12:00,rvs,10.60
2022-10-05T13:13:00,rvs,10.97
2022-10-05T13:14:00,rvs,11.12
2022-10-05T13:15:00,rvs,10.85
2022-10-05T13:16:00,rvs,10.80
2022-10-05T13:17:00,rvs,9.33
2022-10-05T13:18:00,rvs,9.39
2022-10-05T13:19:00,rvs,8.86
2022-10-05T13:20:00,rvs,8.75
2022-10-05T13:21:00,rvs,8.69
2022-10-05T13:22:00,rvs,8.78
2022-10-05T13:23:00,rvs,8.82
2022-10-05T13:24:00,rvs,8.79
2022-10-05T13:25:00,rvs,8.85
2022-10-05T13:26:00,rvs,9.04
2022-10-05T13:27:00,rvs,9.49
2022-10-05T13:28:00,rvs,9.15
2022-10-05T13:29:00,rvs,9.55
2022-10-05T13:30:00,rvs,10.01